DW0148 Weather Reports


time (UTC)temp
F
wind
direction
speed
knots
gust
knots
rain 1hr
in
rain 24hr
in
rain mn
in
humidity
%
barometer
mb
20260904003253 80 138 0.0 0.0 0.00 0.00 0.00 89 1013.2
20260904002751 80 138 0.0 0.0 0.00 0.00 0.00 89 1012.9
20260904002249 81 139 0.0 0.0 0.00 0.00 0.00 89 1012.9
20260904001748 81 138 0.0 0.0 0.00 0.00 0.00 89 1012.9
20260904001216 81 139 0.0 0.0 0.00 0.00 0.00 88 1012.9
20260904000715 82 138 0.0 0.0 0.00 0.00 0.00 88 1012.9
20260904000214 82 138 0.0 0.0 0.00 0.00 0.00 88 1012.9
20260903235711 82 138 0.0 0.0 0.00 0.00 0.00 87 1012.9
20260903235209 83 138 0.0 0.0 0.00 0.00 0.00 87 1012.5
20260903234637 83 138 0.0 0.0 0.00 0.00 0.00 86 1012.5
20260903234136 84 138 0.0 0.0 0.00 0.00 0.00 86 1012.5
20260903233635 84 138 0.0 0.0 0.00 0.00 0.00 85 1012.5
20260903233134 84 138 0.0 0.0 0.00 0.00 0.00 85 1012.5
20260903232633 85 138 0.0 0.0 0.00 0.00 0.00 84 1012.5
20260903232131 85 138 0.0 0.0 0.00 0.00 0.00 83 1012.5
20260903231629 85 139 0.0 0.0 0.00 0.00 0.00 82 1012.5
20260903231128 86 138 0.0 0.0 0.00 0.00 0.00 80 1012.5
20260903230627 86 138 0.0 0.0 0.00 0.00 0.00 79 1012.5
20260903230125 86 139 0.0 0.0 0.00 0.00 0.00 77 1012.5
20260903225623 87 138 0.0 0.0 0.00 0.00 0.00 76 1012.5
20260903225120 87 138 0.0 0.0 0.00 0.00 0.00 75 1012.5
20260903224620 88 138 0.0 0.0 0.00 0.00 0.00 73 1012.5
20260903224119 89 139 0.0 0.0 0.00 0.00 0.00 73 1012.5
20260903223547 89 138 0.0 0.0 0.00 0.00 0.00 72 1012.5
20260903223046 90 138 0.0 0.0 0.00 0.00 0.00 71 1012.5
20260903222545 90 139 0.0 0.0 0.00 0.00 0.00 70 1012.5
20260903222043 91 138 0.0 0.0 0.00 0.00 0.00 71 1012.5
20260903221542 91 347 0.0 0.0 0.00 0.00 0.00 69 1012.5
20260903221042 92 347 0.0 0.0 0.00 0.00 0.00 68 1012.5
20260903220540 92 348 0.0 0.0 0.00 0.00 0.00 65 1012.5
20260903220039 93 347 0.0 0.0 0.00 0.00 0.00 63 1012.5
20260903215538 94 347 0.0 0.0 0.00 0.00 0.00 65 1012.5
20260903215037 94 347 0.0 0.0 0.00 0.00 0.00 58 1012.5
20260903214537 95 347 0.0 0.0 0.00 0.00 0.00 58 1012.5
20260903214005 95 347 0.0 0.0 0.00 0.00 0.00 58 1012.5
20260903213503 95 347 0.0 0.0 0.00 0.00 0.00 56 1012.5
20260903212931 95 347 0.0 0.0 0.00 0.00 0.00 54 1012.5
20260903212429 95 347 0.0 0.0 0.00 0.00 0.00 53 1012.5
20260903211928 95 315 0.0 0.0 0.00 0.00 0.00 52 1012.5
20260903211427 94 335 0.0 0.0 0.00 0.00 0.00 54 1012.5
20260903210926 95 322 0.0 0.0 0.00 0.00 0.00 57 1012.5
20260903210353 95 322 0.0 0.0 0.00 0.00 0.00 51 1012.9
20260903205851 95 323 0.0 0.0 0.00 0.00 0.00 55 1012.9
20260903205349 96 37 0.0 0.0 0.00 0.00 0.00 51 1012.9
20260903204817 97 360 0.0 0.0 0.00 0.00 0.00 52 1012.9
20260903204316 98 100 0.0 0.0 0.00 0.00 0.00 51 1012.9
20260903203815 98 254 0.0 0.0 0.00 0.00 0.00 49 1012.9
20260903203314 97 240 0.0 0.0 0.00 0.00 0.00 50 1012.9
20260903202813 97 259 0.0 0.0 0.00 0.00 0.00 52 1012.9
20260903202312 97 219 0.0 0.0 0.00 0.00 0.00 50 1012.9
20260903201811 96 192 0.0 0.0 0.00 0.00 0.00 52 1013.2
20260903201310 96 252 0.0 0.0 0.00 0.00 0.00 51 1013.2
20260903200809 96 267 0.0 0.0 0.00 0.00 0.00 56 1013.2
20260903200308 96 177 0.0 0.0 0.00 0.00 0.00 56 1013.2
20260903195807 96 238 0.0 0.0 0.00 0.00 0.00 50 1013.2
20260903195306 96 219 0.0 0.0 0.00 0.00 0.00 53 1013.5
20260903194805 96 195 0.0 0.0 0.00 0.00 0.00 53 1013.5
20260903194304 96 196 0.0 0.0 0.00 0.00 0.00 54 1013.5
20260903193732 96 151 0.0 0.0 0.00 0.00 0.00 58 1013.5
20260903193200 96 155 0.0 0.0 0.00 0.00 0.00 55 1013.5
20260903192626 95 184 0.0 0.0 0.00 0.00 0.00 57 1013.9
20260903192124 95 149 0.0 0.0 0.00 0.00 0.00 57 1013.9
20260903191623 95 172 0.0 0.0 0.00 0.00 0.00 57 1013.9
20260903191122 95 158 0.0 0.0 0.00 0.00 0.00 56 1013.9
20260903190621 95 149 0.0 0.0 0.00 0.00 0.00 59 1014.2
20260903190120 96 154 0.0 0.0 0.00 0.00 0.00 57 1014.2
20260903185619 96 169 0.0 0.0 0.00 0.00 0.00 62 1014.2
20260903185117 96 155 0.0 0.0 0.00 0.00 0.00 63 1014.2
20260903184616 95 155 0.0 0.0 0.00 0.00 0.00 63 1014.2
20260903184115 95 158 0.0 0.0 0.00 0.00 0.00 58 1014.2
20260903183542 96 153 0.0 0.0 0.00 0.00 0.00 59 1014.2
20260903183040 96 184 0.0 0.0 0.00 0.00 0.00 60 1014.6
20260903182539 96 183 0.0 0.0 0.00 0.00 0.00 62 1014.6
20260903182037 96 160 0.0 0.0 0.00 0.00 0.00 63 1014.6
20260903181536 95 177 0.0 0.0 0.00 0.00 0.00 63 1014.6
20260903181002 95 150 0.0 0.0 0.00 0.00 0.00 61 1014.6
20260903180501 95 169 0.0 0.0 0.00 0.00 0.00 62 1014.9
20260903180000 96 149 0.0 0.0 0.00 0.00 0.00 63 1014.9
20260903175459 96 169 0.0 0.0 0.00 0.00 0.00 61 1014.9
20260903174957 96 183 0.0 0.0 0.00 0.00 0.00 61 1014.9
20260903174456 96 183 0.0 0.0 0.00 0.00 0.00 62 1014.9
20260903173922 95 181 0.0 0.0 0.00 0.00 0.00 64 1015.2
20260903173421 95 184 0.0 0.0 0.00 0.00 0.00 63 1015.2
20260903172920 95 186 0.0 0.0 0.00 0.00 0.00 66 1015.2
20260903172419 95 188 0.0 0.0 0.00 0.00 0.00 62 1015.2
20260903171918 95 185 0.0 0.0 0.00 0.00 0.00 66 1015.2
20260903171416 95 169 0.0 0.0 0.00 0.00 0.00 64 1015.6
20260903170915 94 159 0.0 0.0 0.00 0.00 0.00 64 1015.6
20260903170414 93 173 0.0 0.0 0.00 0.00 0.00 67 1015.6
20260903165913 93 162 0.0 0.0 0.00 0.00 0.00 69 1015.6
20260903165410 93 154 0.0 0.0 0.00 0.00 0.00 65 1015.9
20260903164909 93 186 0.0 0.0 0.00 0.00 0.00 68 1015.9
20260903164408 93 186 0.0 0.0 0.00 0.00 0.00 69 1015.9
20260903163907 93 187 0.0 0.0 0.00 0.00 0.00 67 1015.9
20260903163406 92 163 0.0 0.0 0.00 0.00 0.00 67 1015.9
20260903162905 92 153 0.0 0.0 0.00 0.00 0.00 66 1015.9
20260903162404 92 179 0.0 0.0 0.00 0.00 0.00 68 1015.9
20260903161903 92 173 0.0 0.0 0.00 0.00 0.00 71 1016.3
20260903161402 91 184 0.0 0.0 0.00 0.00 0.00 71 1016.3
20260903160829 90 187 0.0 0.0 0.00 0.00 0.00 71 1016.3
20260903160328 90 160 0.0 0.0 0.00 0.00 0.00 71 1016.3
20260903155827 90 169 0.0 0.0 0.00 0.00 0.00 70 1016.3
20260903155326 89 159 0.0 0.0 0.00 0.00 0.00 72 1016.3
20260903154825 89 176 0.0 0.0 0.00 0.00 0.00 75 1016.3
20260903154324 88 155 0.0 0.0 0.00 0.00 0.00 75 1016.3
20260903153752 88 159 0.0 0.0 0.00 0.00 0.00 74 1016.3
20260903153251 88 160 0.0 0.0 0.00 0.00 0.00 74 1016.3
20260903152750 88 149 0.0 0.0 0.00 0.00 0.00 75 1016.3
20260903152249 88 143 0.0 0.0 0.00 0.00 0.00 73 1016.3
20260903151748 88 174 0.0 0.0 0.00 0.00 0.00 74 1016.3
20260903151247 88 155 0.0 0.0 0.00 0.00 0.00 74 1016.3
20260903150746 88 150 0.0 0.0 0.00 0.00 0.00 74 1016.3
20260903150214 88 160 0.0 0.0 0.00 0.00 0.00 76 1016.3
20260903145640 87 167 0.0 0.0 0.00 0.00 0.00 76 1016.3
20260903145036 86 159 0.0 0.0 0.00 0.00 0.00 78 1016.3
20260903144535 86 170 0.0 0.0 0.00 0.00 0.00 78 1016.3
20260903144034 85 153 0.0 0.0 0.00 0.00 0.00 79 1016.3
20260903143533 85 149 0.0 0.0 0.00 0.00 0.00 79 1016.3
20260903143032 85 149 0.0 0.0 0.00 0.00 0.00 78 1016.3
20260903142531 84 159 0.0 0.0 0.00 0.00 0.00 80 1016.3
20260903142029 84 142 0.0 0.0 0.00 0.00 0.00 79 1016.3
20260903141457 83 158 0.0 0.0 0.00 0.00 0.00 82 1016.3
20260903140956 83 152 0.0 0.0 0.00 0.00 0.00 81 1016.3
20260903140454 82 145 0.0 0.0 0.00 0.00 0.00 83 1016.6
20260903135920 82 142 0.0 0.0 0.00 0.00 0.00 83 1016.3
20260903135419 81 142 0.0 0.0 0.00 0.00 0.00 85 1016.3
20260903134846 81 142 0.0 0.0 0.00 0.00 0.00 87 1016.3
20260903134345 80 142 0.0 0.0 0.00 0.00 0.00 87 1016.6
20260903133844 79 137 0.0 0.0 0.00 0.00 0.00 89 1016.6
20260903133240 79 142 0.0 0.0 0.00 0.00 0.00 90 1016.6
20260903132739 78 142 0.0 0.0 0.00 0.00 0.00 92 1016.6
20260903132238 77 146 0.0 0.0 0.00 0.00 0.00 93 1016.6
20260903131736 77 145 0.0 0.0 0.00 0.00 0.00 96 1016.6
20260903131235 76 150 0.0 0.0 0.00 0.00 0.00 95 1016.6
20260903130734 75 149 0.0 0.0 0.00 0.00 0.00 95 1016.6
20260903130231 75 152 0.0 0.0 0.00 0.00 0.00 95 1016.6
20260903125730 74 152 0.0 0.0 0.00 0.00 0.00 95 1016.6
20260903125229 74 152 0.0 0.0 0.00 0.00 0.00 95 1016.6
20260903124624 74 152 0.0 0.0 0.00 0.00 0.00 95 1016.6
20260903124123 74 153 0.0 0.0 0.00 0.00 0.00 95 1016.6
20260903123621 73 152 0.0 0.0 0.00 0.00 0.00 95 1016.6
20260903123120 73 152 0.0 0.0 0.00 0.00 0.00 95 1016.6
20260903122619 73 152 0.0 0.0 0.00 0.00 0.00 95 1016.3
20260903122118 73 153 0.0 0.0 0.00 0.00 0.00 95 1016.6
20260903121615 72 152 0.0 0.0 0.00 0.00 0.00 95 1016.3
20260903121044 72 152 0.0 0.0 0.00 0.00 0.00 95 1016.3
20260903120542 72 153 0.0 0.0 0.00 0.00 0.00 95 1016.3
20260903120041 72 152 0.0 0.0 0.00 0.00 0.00 95 1016.3
20260903115509 72 152 0.0 0.0 0.00 0.00 0.00 95 1016.3
20260903115008 72 152 0.0 0.0 0.00 0.00 0.00 95 1016.3
20260903114405 72 152 0.0 0.0 0.00 0.00 0.00 95 1016.3
20260903113904 71 152 0.0 0.0 0.00 0.00 0.00 95 1016.3
20260903113403 71 152 0.0 0.0 0.00 0.00 0.00 95 1015.9
20260903112902 71 152 0.0 0.0 0.00 0.00 0.00 95 1015.9
20260903112227 71 153 0.0 0.0 0.00 0.00 0.00 95 1015.9
20260903111726 71 152 0.0 0.0 0.00 0.00 0.00 95 1015.9
20260903111225 71 153 0.0 0.0 0.00 0.00 0.00 95 1015.9
20260903110724 71 152 0.0 0.0 0.00 0.00 0.00 95 1015.9
20260903110223 71 152 0.0 0.0 0.00 0.00 0.00 95 1015.9
20260903105721 71 152 0.0 0.0 0.00 0.00 0.00 95 1015.9
20260903105220 71 153 0.0 0.0 0.00 0.00 0.00 95 1015.9
20260903104719 71 152 0.0 0.0 0.00 0.00 0.00 95 1015.6
20260903104218 71 152 0.0 0.0 0.00 0.00 0.00 95 1015.6
20260903103644 71 152 0.0 0.0 0.00 0.00 0.00 95 1015.6
20260903103143 71 152 0.0 0.0 0.00 0.00 0.00 95 1015.6
20260903102642 71 152 0.0 0.0 0.00 0.00 0.00 95 1015.6
20260903102141 72 152 0.0 0.0 0.00 0.00 0.00 95 1015.6
20260903101640 72 153 0.0 0.0 0.00 0.00 0.00 95 1015.2
20260903101138 72 152 0.0 0.0 0.00 0.00 0.00 95 1015.2
20260903100637 72 153 0.0 0.0 0.00 0.00 0.00 95 1015.2
20260903100136 72 153 0.0 0.0 0.00 0.00 0.00 95 1015.2
20260903095635 72 153 0.0 0.0 0.00 0.00 0.00 95 1015.2
20260903095134 72 153 0.0 0.0 0.00 0.00 0.00 95 1015.2
20260903094631 72 152 0.0 0.0 0.00 0.00 0.00 95 1015.2
20260903094130 72 152 0.0 0.0 0.00 0.00 0.00 95 1015.2
20260903093629 72 152 0.0 0.0 0.00 0.00 0.00 95 1015.2
20260903093024 72 152 0.0 0.0 0.00 0.00 0.00 95 1015.2
20260903092523 72 152 0.0 0.0 0.00 0.00 0.00 95 1015.2
20260903092021 72 152 0.0 0.0 0.00 0.00 0.00 95 1015.2
20260903091520 72 152 0.0 0.0 0.00 0.00 0.00 95 1015.2
20260903090946 72 152 0.0 0.0 0.00 0.00 0.00 95 1015.2
20260903090445 73 152 0.0 0.0 0.00 0.00 0.00 95 1015.2
20260903085944 73 152 0.0 0.0 0.00 0.00 0.00 95 1015.2
20260903085443 73 153 0.0 0.0 0.00 0.00 0.00 95 1015.6
20260903084942 73 152 0.0 0.0 0.00 0.00 0.00 95 1015.2
20260903084441 73 152 0.0 0.0 0.00 0.00 0.00 95 1015.2
20260903083939 73 153 0.0 0.0 0.00 0.00 0.00 95 1015.2
20260903083437 73 152 0.0 0.0 0.00 0.00 0.00 95 1015.2
20260903082905 73 152 0.0 0.0 0.00 0.00 0.00 95 1015.2
20260903082404 73 152 0.0 0.0 0.00 0.00 0.00 95 1015.2
20260903081903 73 152 0.0 0.0 0.00 0.00 0.00 95 1015.2
20260903081401 73 152 0.0 0.0 0.00 0.00 0.00 95 1015.2
20260903080900 73 152 0.0 0.0 0.00 0.00 0.00 95 1015.2
20260903080359 73 153 0.0 0.0 0.00 0.00 0.00 95 1015.2
20260903075858 73 153 0.0 0.0 0.00 0.00 0.00 95 1015.2
20260903075356 73 152 0.0 0.0 0.00 0.00 0.00 95 1015.2
20260903074855 73 152 0.0 0.0 0.00 0.00 0.00 95 1015.2
20260903074354 73 152 0.0 0.0 0.00 0.00 0.00 95 1015.2
20260903073853 73 152 0.0 0.0 0.00 0.00 0.00 95 1015.2
20260903073352 73 152 0.0 0.0 0.00 0.00 0.00 95 1015.2
20260903072851 73 152 0.0 0.0 0.00 0.00 0.00 95 1014.9
20260903072350 73 152 0.0 0.0 0.00 0.00 0.00 95 1014.9
20260903071849 73 152 0.0 0.0 0.00 0.00 0.00 95 1014.9
20260903071348 73 153 0.0 0.0 0.00 0.00 0.00 95 1014.9
20260903070816 73 152 0.0 0.0 0.00 0.00 0.00 95 1014.9
20260903070314 73 152 0.0 0.0 0.00 0.00 0.00 95 1014.9
20260903065811 73 153 0.0 0.0 0.00 0.00 0.00 95 1014.9
20260903065310 73 152 0.0 0.0 0.00 0.00 0.00 95 1014.9
20260903064809 73 153 0.0 0.0 0.00 0.00 0.00 95 1014.9
20260903064306 73 152 0.0 0.0 0.00 0.00 0.00 95 1014.9
20260903063804 73 152 0.0 0.0 0.00 0.00 0.00 95 1014.9
20260903063303 73 153 0.0 0.0 0.00 0.00 0.00 95 1015.2
20260903062802 73 148 0.0 0.0 0.00 0.00 0.00 95 1015.2
20260903062301 73 148 0.0 0.0 0.00 0.00 0.00 95 1015.2
20260903061759 73 148 0.0 0.0 0.00 0.00 0.00 95 1015.2
20260903061257 73 148 0.0 0.0 0.00 0.00 0.00 95 1015.2
20260903060756 73 148 0.0 0.0 0.00 0.00 0.00 95 1015.2
20260903060255 73 148 0.0 0.0 0.00 0.00 0.00 95 1015.2
20260903055650 73 148 0.0 0.0 0.00 0.00 0.00 95 1015.2
20260903055117 73 148 0.0 0.0 0.00 0.00 0.00 95 1015.2
20260903054616 73 148 0.0 0.0 0.00 0.00 0.00 95 1015.2
20260903054114 73 148 0.0 0.0 0.00 0.00 0.00 95 1015.2
20260903053614 73 148 0.0 0.0 0.00 0.00 0.00 95 1015.2
20260903053112 73 148 0.0 0.0 0.00 0.00 0.00 95 1015.2
20260903052611 73 148 0.0 0.0 0.00 0.00 0.00 95 1015.6
20260903052110 73 148 0.0 0.0 0.00 0.00 0.00 95 1015.6
20260903051608 73 148 0.0 0.0 0.00 0.00 0.00 95 1015.6
20260903051108 73 148 0.0 0.0 0.00 0.00 0.00 95 1015.6
20260903050605 73 148 0.0 0.0 0.00 0.00 0.00 95 1015.6
20260903050104 73 148 0.0 0.0 0.00 0.00 0.00 95 1015.6
20260903045604 73 148 0.0 0.0 0.00 0.00 0.00 95 1015.6
20260903045030 73 148 0.0 0.0 0.00 0.00 0.00 95 1015.6
20260903044530 73 148 0.0 0.0 0.00 0.00 0.00 95 1015.2
20260903044029 73 148 0.0 0.0 0.00 0.00 0.00 95 1015.6
20260903043528 73 148 0.0 0.0 0.00 0.00 0.00 95 1015.2
20260903043026 73 148 0.0 0.0 0.00 0.00 0.00 95 1015.2
20260903042453 73 148 0.0 0.0 0.00 0.00 0.00 94 1015.2
20260903041952 73 148 0.0 0.0 0.00 0.00 0.00 94 1015.6
20260903041450 73 148 0.0 0.0 0.00 0.00 0.00 94 1015.6
20260903040948 73 148 0.0 0.0 0.00 0.00 0.00 94 1015.6
20260903040447 73 148 0.0 0.0 0.00 0.00 0.00 94 1015.6
20260903035945 73 148 0.0 0.0 0.00 0.00 0.00 94 1015.2
20260903035444 73 148 0.0 0.0 0.00 0.00 0.00 93 1015.2
20260903034943 73 148 0.0 0.0 0.00 0.00 0.00 93 1015.2
20260903034442 74 148 0.0 0.0 0.00 0.00 0.00 93 1015.2
20260903033940 74 148 0.0 0.0 0.00 0.00 0.00 93 1015.2
20260903033438 74 148 0.0 0.0 0.00 0.00 0.00 93 1015.2
20260903032937 74 148 0.0 0.0 0.00 0.00 0.00 93 1015.2
20260903032436 74 148 0.0 0.0 0.00 0.00 0.00 93 1015.2
20260903031934 74 148 0.0 0.0 0.00 0.00 0.00 93 1015.2
20260903031433 74 148 0.0 0.0 0.00 0.00 0.00 93 1015.2
20260903030932 74 148 0.0 0.0 0.00 0.00 0.00 93 1015.2
20260903030429 74 148 0.0 0.0 0.00 0.00 0.00 93 1015.2
20260903025928 74 148 0.0 0.0 0.00 0.00 0.00 92 1015.2
20260903025427 74 148 0.0 0.0 0.00 0.00 0.00 92 1015.2
20260903024925 74 148 0.0 0.0 0.00 0.00 0.00 92 1015.2
20260903024425 74 148 0.0 0.0 0.00 0.00 0.00 91 1015.2
20260903023923 75 148 0.0 0.0 0.00 0.00 0.00 91 1015.2
20260903023422 75 148 0.0 0.0 0.00 0.00 0.00 91 1015.2
20260903022921 75 148 0.0 0.0 0.00 0.00 0.00 91 1015.2
20260903022349 75 148 0.0 0.0 0.00 0.00 0.00 91 1015.2
20260903021817 75 148 0.0 0.0 0.00 0.00 0.00 91 1015.2
20260903021316 75 148 0.0 0.0 0.00 0.00 0.00 91 1015.2
20260903020815 75 148 0.0 0.0 0.00 0.00 0.00 91 1015.2
20260903020314 75 148 0.0 0.0 0.00 0.00 0.00 91 1015.2
20260903015813 75 148 0.0 0.0 0.00 0.00 0.00 91 1015.2
20260903015312 75 148 0.0 0.0 0.00 0.00 0.00 91 1015.2
20260903014811 75 148 0.0 0.0 0.00 0.00 0.00 90 1014.9
20260903014310 76 148 0.0 0.0 0.00 0.00 0.00 90 1014.9
20260903013809 76 148 0.0 0.0 0.00 0.00 0.00 90 1014.9
20260903013307 76 146 0.0 0.0 0.00 0.00 0.00 90 1014.9
20260903012806 76 146 0.0 0.0 0.00 0.00 0.00 90 1014.9
20260903012234 76 146 0.0 0.0 0.00 0.00 0.00 89 1014.9
20260903011701 76 146 0.0 0.0 0.00 0.00 0.00 89 1014.9
20260903011200 76 147 0.0 0.0 0.00 0.00 0.00 89 1014.6
20260903010659 76 146 0.0 0.0 0.00 0.00 0.00 89 1014.6
20260903010158 76 146 0.0 0.0 0.00 0.00 0.00 88 1014.6
20260903005656 77 146 0.0 0.0 0.00 0.00 0.00 88 1014.6
20260903005154 77 147 0.0 0.0 0.00 0.00 0.00 87 1014.6
20260903004653 77 146 0.0 0.0 0.00 0.00 0.00 87 1014.6
20260903004152 77 146 0.0 0.0 0.00 0.00 0.00 87 1014.6
20260903003651 78 146 0.0 0.0 0.00 0.00 0.00 87 1014.6